FW0014 Weather Reports


time (UTC)temp
C
wind
direction
speed
KPH
gust
KPH
rain 1hr
cm
rain 24hr
cm
rain mn
cm
humidity
%
barometer
mb
20260510192053 29 187 9.7 22.5 0.00 0.00 0.00 58 1012.3
20260510191815 30 145 17.7 22.5 0.00 0.00 0.00 57 1014.8
20260510191549 30 139 16.1 24.1 0.00 0.00 0.00 59 1012.3
20260510191327 30 147 8.0 17.7 0.00 0.00 0.00 59 1014.7
20260510191037 30 133 12.9 22.5 0.00 0.00 0.00 61 1012.2
20260510190844 30 136 9.7 22.5 0.00 0.00 0.00 63 1014.7
20260510190502 29 164 14.5 27.4 0.00 0.00 0.00 60 1012.1
20260510190320 29 143 12.9 30.6 0.00 0.00 0.00 61 1014.8
20260510190057 28 151 17.7 30.6 0.00 0.00 0.00 61 1012.1
20260510185816 29 143 17.7 30.6 0.00 0.00 0.00 62 1014.7
20260510185547 28 191 14.5 29.0 0.00 0.00 0.00 61 1012.0
20260510185332 29 137 12.9 29.0 0.00 0.00 0.00 62 1014.7
20260510185038 28 172 17.7 29.0 0.00 0.00 0.00 64 1012.2
20260510184828 29 155 20.9 29.0 0.00 0.00 0.00 63 1014.6
20260510184533 28 142 11.3 27.4 0.00 0.00 0.00 62 1012.2
20260510184324 28 105 16.1 27.4 0.00 0.00 0.00 62 1014.6
20260510184027 28 160 19.3 27.4 0.00 0.00 0.00 62 1012.1
20260510183819 29 136 16.1 25.7 0.00 0.00 0.00 62 1014.7
20260510183520 28 184 16.1 25.7 0.00 0.00 0.00 62 1012.2
20260510183337 29 174 20.9 25.7 0.00 0.00 0.00 62 1014.8
20260510183048 28 180 6.4 29.0 0.00 0.00 0.00 63 1012.3
20260510182831 28 180 12.9 29.0 0.00 0.00 0.00 63 1014.9
20260510182541 28 152 19.3 29.0 0.00 0.00 0.00 63 1012.5
20260510182327 28 158 11.3 27.4 0.00 0.00 0.00 64 1014.9
20260510182037 28 163 16.1 27.4 0.00 0.00 0.00 64 1012.5
20260510181843 28 137 19.3 27.4 0.00 0.00 0.00 64 1014.9
20260510181506 28 168 11.3 29.0 0.00 0.00 0.00 64 1012.4
20260510181317 28 147 11.3 24.1 0.00 0.00 0.00 64 1014.9
20260510181102 28 146 16.1 24.1 0.00 0.00 0.00 64 1012.5
20260510180854 28 172 16.1 24.1 0.00 0.00 0.00 63 1015.0
20260510180532 28 156 14.5 22.5 0.00 0.00 0.00 63 1012.5
20260510180328 29 159 4.8 30.6 0.00 0.00 0.00 65 1015.1
20260510180016 28 140 14.5 30.6 0.00 0.00 0.00 65 1012.6
20260510175824 28 147 16.1 30.6 0.00 0.00 0.00 65 1015.1
20260510175547 28 146 12.9 32.2 0.00 0.00 0.00 66 1012.6
20260510175340 28 158 11.3 32.2 0.00 0.00 0.00 66 1015.1
20260510175021 28 197 14.5 32.2 0.00 0.00 0.00 64 1012.6
20260510174815 28 154 22.5 32.2 0.00 0.00 0.00 65 1015.3
20260510174503 28 139 9.7 22.5 0.00 0.00 0.00 67 1012.8
20260510174332 28 139 12.9 22.5 0.00 0.00 0.00 66 1015.3
20260510174103 28 168 14.5 22.5 0.00 0.00 0.00 66 1012.8
20260510173828 28 183 12.9 22.5 0.00 0.00 0.00 67 1015.3
20260510173548 28 153 12.9 24.1 0.00 0.00 0.00 66 1012.8
20260510173324 28 160 17.7 24.1 0.00 0.00 0.00 67 1015.4
20260510173039 28 124 14.5 29.0 0.00 0.00 0.00 67 1012.8
20260510172819 28 121 16.1 29.0 0.00 0.00 0.00 67 1015.4
20260510172533 27 149 11.3 29.0 0.00 0.00 0.00 67 1012.9
20260510172335 28 130 17.7 29.0 0.00 0.00 0.00 67 1015.4
20260510172059 27 119 12.9 27.4 0.00 0.00 0.00 68 1012.9
20260510171829 28 130 16.1 27.4 0.00 0.00 0.00 67 1015.5
20260510171551 27 162 8.0 22.5 0.00 0.00 0.00 67 1013.0
20260510171324 27 161 12.9 22.5 0.00 0.00 0.00 69 1015.4
20260510171040 27 168 12.9 25.7 0.00 0.00 0.00 68 1013.0
20260510170821 27 153 14.5 30.6 0.00 0.00 0.00 70 1015.4
20260510170535 27 140 14.5 30.6 0.00 0.00 0.00 69 1012.9
20260510170317 27 158 16.1 30.6 0.00 0.00 0.00 68 1015.4
20260510170021 27 131 14.5 32.2 0.00 0.00 0.00 69 1012.9
20260510165850 27 162 8.0 25.7 0.00 0.00 0.00 69 1015.4
20260510165551 27 153 6.4 25.7 0.00 0.00 0.00 70 1012.9
20260510165326 27 146 12.9 25.7 0.00 0.00 0.00 69 1015.5
20260510165040 27 150 14.5 24.1 0.00 0.00 0.00 70 1012.9
20260510164821 27 114 9.7 24.1 0.00 0.00 0.00 70 1015.4
20260510164544 27 160 16.1 24.1 0.00 0.00 0.00 70 1012.8
20260510164319 27 138 9.7 20.9 0.00 0.00 0.00 72 1015.4
20260510164025 27 152 12.9 20.9 0.00 0.00 0.00 71 1013.0
20260510163815 27 147 9.7 22.5 0.00 0.00 0.00 72 1015.4
20260510163511 27 131 6.4 14.5 0.00 0.00 0.00 72 1012.9
20260510163331 27 133 8.0 16.1 0.00 0.00 0.00 73 1015.5
20260510163006 27 114 6.4 19.3 0.00 0.00 0.00 73 1013.0
20260510162826 27 154 8.0 19.3 0.00 0.00 0.00 73 1015.5
20260510162601 26 122 9.7 19.3 0.00 0.00 0.00 74 1013.0
20260510162323 27 73 12.9 24.1 0.00 0.00 0.00 72 1015.5
20260510162053 26 152 9.7 24.1 0.00 0.00 0.00 73 1013.1
20260510161819 26 151 11.3 24.1 0.00 0.00 0.00 74 1015.6
20260510161547 26 154 14.5 24.1 0.00 0.00 0.00 74 1013.2
20260510161313 26 133 12.9 19.3 0.00 0.00 0.00 74 1015.7
20260510161037 26 166 4.8 17.7 0.00 0.00 0.00 75 1013.2
20260510160829 26 120 9.7 17.7 0.00 0.00 0.00 74 1015.6
20260510160529 26 149 6.4 17.7 0.00 0.00 0.00 75 1013.2
20260510160325 26 120 8.0 20.9 0.00 0.00 0.00 75 1015.6
20260510160023 26 125 8.0 20.9 0.00 0.00 0.00 75 1013.2
20260510155840 26 133 11.3 20.9 0.00 0.00 0.00 76 1015.7
20260510155548 26 158 9.7 20.9 0.00 0.00 0.00 74 1013.2
20260510155315 26 143 8.0 16.1 0.00 0.00 0.00 75 1015.6
20260510155039 26 113 4.8 16.1 0.00 0.00 0.00 76 1013.2
20260510154830 26 166 8.0 17.7 0.00 0.00 0.00 76 1015.6
20260510154544 25 152 4.8 17.7 0.00 0.00 0.00 77 1013.3
20260510154326 25 163 4.8 17.7 0.00 0.00 0.00 76 1015.7
20260510154054 25 149 9.7 14.5 0.00 0.00 0.00 76 1013.3
20260510153823 26 154 6.4 14.5 0.00 0.00 0.00 77 1015.8
20260510153547 25 77 8.0 14.5 0.00 0.00 0.00 77 1013.4
20260510153316 25 113 8.0 14.5 0.00 0.00 0.00 77 1015.9
20260510153041 25 37 6.4 16.1 0.00 0.00 0.00 78 1013.4
20260510152832 25 102 3.2 16.1 0.00 0.00 0.00 78 1015.9
20260510152531 25 118 8.0 16.1 0.00 0.00 0.00 78 1013.4
20260510152328 25 147 6.4 16.1 0.00 0.00 0.00 78 1015.9
20260510152013 25 68 6.4 22.5 0.00 0.00 0.00 79 1013.4
20260510151824 25 75 8.0 22.5 0.00 0.00 0.00 79 1015.9
20260510151504 24 61 8.0 22.5 0.00 0.00 0.00 79 1013.5
20260510151319 25 23 8.0 16.1 0.00 0.00 0.00 79 1015.9
20260510151057 24 83 4.8 12.9 0.00 0.00 0.00 79 1013.4
20260510150816 25 62 6.4 12.9 0.00 0.00 0.00 79 1015.9
20260510150547 24 112 4.8 16.1 0.00 0.00 0.00 79 1013.4
20260510150332 24 114 3.2 16.1 0.00 0.00 0.00 80 1016.0
20260510150043 24 60 4.8 16.1 0.00 0.00 0.00 80 1013.5
20260510145828 24 80 8.0 16.1 0.00 0.00 0.00 80 1016.0
20260510145530 23 43 6.4 16.1 0.00 0.00 0.00 80 1013.5
20260510145324 24 69 6.4 16.1 0.00 0.00 0.00 80 1016.0
20260510145022 23 73 6.4 16.1 0.00 0.00 0.00 80 1013.6
20260510144819 24 84 11.3 16.1 0.00 0.00 0.00 79 1015.8
20260510144521 23 51 6.4 16.1 0.00 0.00 0.00 80 1013.2
20260510144336 24 43 8.0 16.1 0.00 0.00 0.00 80 1015.9
20260510144038 23 32 6.4 12.9 0.00 0.00 0.00 80 1013.4
20260510143830 24 58 6.4 12.9 0.00 0.00 0.00 80 1015.9
20260510143528 23 45 6.4 9.7 0.00 0.00 0.00 80 1013.5
20260510143325 24 81 3.2 9.7 0.00 0.00 0.00 80 1016.0
20260510143019 23 92 3.2 12.9 0.00 0.00 0.00 80 1013.5
20260510142821 23 68 6.4 12.9 0.00 0.00 0.00 80 1015.9
20260510142503 23 58 4.8 11.3 0.00 0.00 0.00 80 1013.4
20260510142318 23 95 4.8 9.7 0.00 0.00 0.00 80 1015.9
20260510142058 23 103 4.8 9.7 0.00 0.00 0.00 80 1013.4
20260510141854 23 53 4.8 9.7 0.00 0.00 0.00 80 1015.8
20260510141529 23 93 1.6 9.7 0.00 0.00 0.00 81 1013.3
20260510141327 23 91 4.8 9.7 0.00 0.00 0.00 80 1015.7
20260510141012 23 75 4.8 9.7 0.00 0.00 0.00 81 1013.2
20260510140824 23 91 3.2 6.4 0.00 0.00 0.00 81 1015.6
20260510140503 23 71 3.2 6.4 0.00 0.00 0.00 81 1013.1
20260510140321 23 63 3.2 6.4 0.00 0.00 0.00 81 1015.5
20260510140057 23 92 3.2 6.4 0.00 0.00 0.00 81 1013.1
20260510135816 23 84 4.8 6.4 0.00 0.00 0.00 82 1015.4
20260510135550 22 81 3.2 6.4 0.00 0.00 0.00 82 1013.0
20260510135314 22 85 3.2 6.4 0.00 0.00 0.00 82 1015.4
20260510135045 22 162 1.6 6.4 0.00 0.00 0.00 81 1013.0
20260510134828 22 133 4.8 11.3 0.00 0.00 0.00 81 1015.5
20260510134538 22 126 3.2 11.3 0.00 0.00 0.00 81 1013.1
20260510134324 22 141 4.8 11.3 0.00 0.00 0.00 81 1015.5
20260510134100 22 136 6.4 11.3 0.00 0.00 0.00 81 1013.0
20260510133821 22 154 4.8 9.7 0.00 0.00 0.00 81 1015.4
20260510133556 22 148 1.6 6.4 0.00 0.00 0.00 82 1013.0
20260510133319 22 110 1.6 6.4 0.00 0.00 0.00 82 1015.3
20260510133048 22 68 1.6 6.4 0.00 0.00 0.00 82 1012.9
20260510132816 22 68 1.6 4.8 0.00 0.00 0.00 82 1015.3
20260510132539 22 68 1.6 4.8 0.00 0.00 0.00 82 1012.8
20260510132330 22 67 1.6 3.2 0.00 0.00 0.00 83 1015.1
20260510132003 22 67 0.0 6.4 0.00 0.00 0.00 83 1012.5
20260510131827 22 68 1.6 6.4 0.00 0.00 0.00 84 1015.1
20260510131555 22 67 0.0 8.0 0.00 0.00 0.00 84 1012.5
20260510131343 22 68 0.0 8.0 0.00 0.00 0.00 84 1015.0
20260510131027 21 68 1.6 8.0 0.00 0.00 0.00 83 1012.4
20260510130816 22 67 4.8 8.0 0.00 0.00 0.00 83 1014.8
20260510130517 21 79 3.2 8.0 0.00 0.00 0.00 83 1012.3
20260510130332 22 79 3.2 8.0 0.00 0.00 0.00 83 1014.6
20260510130002 21 79 1.6 9.7 0.00 0.03 0.00 84 1012.3
20260510125829 21 79 3.2 9.7 0.00 0.03 0.00 84 1014.6
20260510125555 21 80 4.8 9.7 0.00 0.03 0.00 83 1012.2
20260510125326 21 53 4.8 9.7 0.00 0.03 0.00 84 1014.6
20260510125047 21 60 4.8 6.4 0.00 0.03 0.00 83 1012.1
20260510124821 21 54 3.2 6.4 0.00 0.03 0.00 84 1014.5
20260510124541 21 62 3.2 6.4 0.00 0.03 0.00 83 1011.9
20260510124317 21 79 3.2 4.8 0.00 0.03 0.00 84 1014.3
20260510124031 21 112 0.0 4.8 0.00 0.03 0.00 84 1011.7
20260510123832 21 158 1.6 4.8 0.00 0.03 0.00 83 1014.0
20260510123515 21 158 4.8 9.7 0.00 0.03 0.00 83 1011.4
20260510123328 21 158 4.8 9.7 0.00 0.03 0.00 83 1013.8
20260510123009 21 158 3.2 9.7 0.00 0.03 0.00 83 1011.3
20260510122824 21 110 3.2 6.4 0.00 0.03 0.00 83 1013.8
20260510122500 21 145 0.0 11.3 0.00 0.03 0.00 83 1011.2
20260510122342 21 145 0.0 12.9 0.00 0.03 0.00 83 1013.7
20260510122032 21 145 3.2 14.5 0.00 0.03 0.00 83 1011.2
20260510121818 21 127 6.4 14.5 0.00 0.03 0.00 83 1013.5
20260510121518 21 146 6.4 14.5 0.00 0.03 0.00 83 1010.8
20260510121354 21 149 9.7 14.5 0.00 0.03 0.00 83 1013.2
20260510121051 21 150 8.0 12.9 0.00 0.03 0.00 83 1010.7
20260510120828 21 168 9.7 12.9 0.00 0.03 0.00 83 1013.1
20260510120544 21 155 8.0 14.5 0.00 0.03 0.00 83 1010.5
20260510120323 21 186 8.0 16.1 0.00 0.03 0.00 83 1013.1
20260510120036 21 194 8.0 16.1 0.00 0.03 0.00 83 1010.5
20260510115820 21 205 8.0 16.1 0.00 0.03 0.00 83 1013.0
20260510115527 21 196 9.7 19.3 0.00 0.03 0.00 83 1010.5
20260510115316 21 160 9.7 19.3 0.00 0.03 0.00 83 1012.8
20260510115014 21 214 9.7 19.3 0.00 0.03 0.00 83 1010.3
20260510114832 21 199 11.3 19.3 0.00 0.03 0.00 83 1012.8
20260510114505 21 204 9.7 24.1 0.00 0.03 0.00 83 1010.2
20260510114328 21 193 11.3 24.1 0.00 0.03 0.00 83 1012.6
20260510114037 21 166 12.9 24.1 0.00 0.03 0.00 83 1010.1
20260510113845 21 222 14.5 24.1 0.00 0.03 0.00 83 1012.4
20260510113500 21 207 11.3 19.3 0.00 0.03 0.00 83 1010.0
20260510113319 21 210 11.3 19.3 0.00 0.03 0.00 84 1012.4
20260510113100 21 220 9.7 16.1 0.00 0.03 0.00 84 1010.2
20260510112815 21 214 9.7 16.1 0.00 0.03 0.00 84 1012.6
20260510112545 21 212 8.0 14.5 0.00 0.03 0.00 84 1010.3
20260510112327 21 218 9.7 12.9 0.00 0.03 0.00 84 1012.6
20260510112036 21 190 8.0 16.1 0.00 0.03 0.00 84 1010.2
20260510111824 21 214 9.7 16.1 0.00 0.03 0.00 84 1012.7
20260510111529 21 194 9.7 16.1 0.00 0.03 0.00 84 1010.3
20260510111319 21 225 9.7 16.1 0.00 0.03 0.00 84 1012.6
20260510111022 21 206 8.0 16.1 0.00 0.03 0.00 84 1010.2
20260510110816 21 210 11.3 16.1 0.00 0.03 0.00 84 1012.6
20260510110516 21 189 9.7 14.5 0.00 0.03 0.00 84 1010.3
20260510110333 21 191 9.7 14.5 0.00 0.03 0.00 84 1012.7
20260510110100 21 196 8.0 16.1 0.00 0.03 0.00 84 1010.3
20260510105830 21 201 9.7 16.1 0.00 0.03 0.00 84 1012.6
20260510105553 21 210 8.0 16.1 0.00 0.03 0.00 84 1010.2
20260510105326 21 217 8.0 14.5 0.00 0.03 0.00 84 1012.6
20260510105042 21 199 8.0 16.1 0.00 0.03 0.00 84 1010.1
20260510104821 21 201 8.0 16.1 0.00 0.03 0.00 84 1012.5
20260510104533 21 212 9.7 16.1 0.00 0.03 0.00 84 1010.2
20260510104337 21 204 9.7 12.9 0.00 0.03 0.00 84 1012.5
20260510104057 21 221 8.0 12.9 0.00 0.03 0.00 84 1010.2
20260510103833 21 220 8.0 14.5 0.00 0.03 0.00 84 1012.4
20260510103548 21 213 8.0 14.5 0.00 0.03 0.00 84 1010.0
20260510103329 21 226 8.0 14.5 0.00 0.03 0.00 84 1012.4
20260510103041 21 215 9.7 14.5 0.00 0.03 0.00 84 1010.1
20260510102824 21 210 9.7 14.5 0.00 0.03 0.00 84 1012.4
20260510102533 21 232 8.0 14.5 0.00 0.03 0.00 84 1010.1
20260510102321 21 210 8.0 12.9 0.00 0.03 0.00 84 1012.5
20260510102027 21 224 6.4 12.9 0.00 0.03 0.00 84 1010.1
20260510101815 21 210 8.0 12.9 0.00 0.03 0.00 84 1012.5
20260510101516 21 210 6.4 12.9 0.00 0.03 0.00 84 1010.1
20260510101332 21 214 8.0 12.9 0.00 0.03 0.00 84 1012.4
20260510101103 21 189 8.0 12.9 0.00 0.03 0.00 84 1010.0
20260510100828 21 220 8.0 12.9 0.00 0.03 0.00 84 1012.4
20260510100554 21 199 6.4 12.9 0.00 0.03 0.00 84 1009.9
20260510100345 21 213 8.0 14.5 0.00 0.03 0.00 84 1012.4
20260510100026 21 201 8.0 14.5 0.00 0.03 0.00 84 1009.9
20260510095821 21 211 9.7 14.5 0.00 0.03 0.00 84 1012.3
20260510095520 21 224 6.4 14.5 0.00 0.03 0.00 84 1009.9
20260510095316 21 218 9.7 14.5 0.00 0.03 0.00 84 1012.3
20260510095104 21 218 8.0 19.3 0.00 0.03 0.00 84 1009.9
20260510094853 21 212 8.0 19.3 0.00 0.03 0.00 84 1012.3
20260510094535 21 217 9.7 19.3 0.00 0.03 0.00 84 1009.9
20260510094326 22 207 9.7 16.1 0.00 0.03 0.00 84 1012.3
20260510094100 21 217 9.7 16.1 0.00 0.03 0.00 84 1010.0
20260510093822 22 226 9.7 16.1 0.00 0.03 0.00 84 1012.2
20260510093550 21 214 8.0 16.1 0.00 0.03 0.00 83 1009.9
20260510093320 22 225 9.7 16.1 0.00 0.03 0.00 83 1012.3
20260510093046 21 203 9.7 16.1 0.00 0.03 0.00 83 1010.1
20260510092815 22 198 9.7 14.5 0.00 0.03 0.00 83 1012.3
20260510092504 21 223 6.4 16.1 0.00 0.03 0.00 83 1010.0
20260510092331 22 179 8.0 16.1 0.00 0.03 0.00 83 1012.3
20260510092058 21 201 8.0 16.1 0.00 0.03 0.00 83 1010.0
20260510091828 22 202 9.7 16.1 0.00 0.03 0.00 83 1012.3
20260510091551 22 204 8.0 14.5 0.00 0.03 0.00 83 1010.0
20260510091323 22 193 8.0 14.5 0.00 0.03 0.00 83 1012.3
20260510091044 22 202 6.4 16.1 0.00 0.03 0.00 83 1009.9
20260510090820 22 231 6.4 16.1 0.00 0.03 0.00 83 1012.2
20260510090538 22 232 9.7 16.1 0.00 0.03 0.00 83 1009.8
20260510090315 22 237 9.7 24.1 0.00 0.03 0.00 82 1012.2
20260510090030 22 180 9.7 24.1 0.00 0.03 0.00 82 1009.8
20260510085830 22 185 9.7 24.1 0.00 0.03 0.00 82 1012.2
20260510085513 22 195 11.3 19.3 0.00 0.03 0.00 83 1009.8
20260510085327 22 183 9.7 17.7 0.00 0.03 0.00 83 1012.2
20260510085002 22 204 8.0 17.7 0.00 0.03 0.00 82 1009.8
20260510084844 22 182 9.7 17.7 0.00 0.03 0.00 83 1012.2
20260510084537 22 195 9.7 16.1 0.00 0.03 0.00 82 1010.0
20260510084335 22 191 11.3 16.1 0.00 0.03 0.00 82 1012.3
20260510084058 22 181 9.7 16.1 0.00 0.03 0.00 83 1010.0
20260510083831 22 184 9.7 14.5 0.00 0.03 0.00 83 1012.4
20260510083548 22 187 8.0 14.5 0.00 0.03 0.00 83 1010.2
20260510083327 22 165 8.0 14.5 0.00 0.03 0.00 82 1012.4
20260510083038 22 211 8.0 14.5 0.00 0.03 0.00 82 1010.1
20260510082826 22 185 9.7 14.5 0.00 0.03 0.00 82 1012.4
20260510082530 22 204 8.0 14.5 0.00 0.03 0.00 82 1009.9
20260510082323 22 191 11.3 17.7 0.00 0.03 0.00 82 1012.4
20260510082021 22 182 8.0 12.9 0.00 0.03 0.00 82 1010.0
20260510081818 22 199 9.7 12.9 0.00 0.03 0.00 82 1012.4
20260510081504 22 169 8.0 12.9 0.00 0.03 0.00 82 1010.1
20260510081314 22 166 9.7 12.9 0.00 0.03 0.00 82 1012.5
20260510081058 22 153 8.0 11.3 0.00 0.03 0.00 82 1010.2
20260510080831 22 155 8.0 11.3 0.00 0.03 0.00 82 1012.5
20260510080550 22 175 6.4 12.9 0.00 0.03 0.00 82 1010.2
20260510080327 22 178 6.4 12.9 0.00 0.03 0.00 82 1012.6
20260510080055 22 149 6.4 12.9 0.00 0.03 0.00 82 1010.0
20260510075825 22 176 8.0 12.9 0.00 0.03 0.00 82 1012.4
20260510075542 22 174 8.0 14.5 0.00 0.03 0.00 82 1010.0
20260510075320 22 183 8.0 12.9 0.00 0.03 0.00 82 1012.3
20260510075034 22 181 8.0 12.9 0.00 0.03 0.00 82 1009.9
20260510074837 22 172 8.0 12.9 0.00 0.03 0.00 82 1012.3
20260510074559 22 181 6.4 12.9 0.00 0.03 0.00 82 1010.0
20260510074352 22 190 8.0 12.9 0.00 0.03 0.00 82 1012.4
20260510074031 22 204 6.4 12.9 0.00 0.03 0.00 83 1010.0
20260510073827 22 166 8.0 12.9 0.00 0.03 0.00 83 1012.3
20260510073513 22 164 8.0 14.5 0.00 0.03 0.00 82 1010.0
20260510073324 22 165 9.7 14.5 0.00 0.03 0.00 82 1012.3
20260510073008 22 170 8.0 12.9 0.00 0.03 0.00 82 1010.0
20260510072820 22 174 9.7 12.9 0.00 0.03 0.00 82 1012.3
20260510072558 22 168 9.7 14.5 0.00 0.03 0.00 82 1009.9
20260510072316 22 179 11.3 16.1 0.00 0.03 0.00 82 1012.4
20260510072049 22 175 8.0 14.5 0.00 0.03 0.00 82 1010.0
20260510071832 22 184 9.7 14.5 0.00 0.03 0.00 82 1012.4
20260510071542 22 165 9.7 14.5 0.00 0.03 0.00 82 1009.9
20260510071348 22 185 11.3 16.1 0.00 0.03 0.00 82 1012.4
20260510071004 22 162 9.7 16.1 0.00 0.03 0.00 82 1010.0
20260510070823 22 166 9.7 16.1 0.00 0.03 0.00 82 1012.4
20260510070558 22 187 8.0 12.9 0.00 0.03 0.00 82 1010.1
20260510070319 22 181 9.7 11.3 0.00 0.03 0.00 82 1012.4
20260510070056 22 166 9.7 12.9 0.00 0.03 0.00 81 1010.1
20260510065814 23 160 9.7 12.9 0.00 0.03 0.00 81 1012.4
20260510065544 22 163 9.7 12.9 0.00 0.03 0.00 81 1010.1
20260510065331 23 147 8.0 11.3 0.00 0.03 0.00 81 1012.5
20260510065039 22 172 8.0 11.3 0.00 0.03 0.00 81 1010.2
20260510064847 23 160 9.7 11.3 0.00 0.03 0.00 81 1012.6
20260510064512 23 167 8.0 11.3 0.00 0.03 0.00 81 1010.1
20260510064343 23 158 8.0 12.9 0.00 0.03 0.00 81 1012.5
20260510064036 23 152 8.0 12.9 0.00 0.03 0.00 81 1010.1
20260510063819 23 161 8.0 14.5 0.00 0.03 0.00 81 1012.5
20260510063530 23 151 6.4 14.5 0.00 0.03 0.00 81 1010.1
20260510063316 23 195 11.3 14.5 0.00 0.03 0.00 81 1012.5
20260510063014 23 179 8.0 14.5 0.00 0.03 0.00 81 1010.2
20260510062832 23 181 9.7 14.5 0.00 0.03 0.00 81 1012.5
20260510062506 23 164 9.7 16.1 0.00 0.03 0.00 81 1010.1
20260510062329 23 170 9.7 16.1 0.00 0.03 0.00 81 1012.5
20260510062100 23 170 8.0 17.7 0.00 0.03 0.00 81 1010.2
20260510061825 23 199 8.0 14.5 0.00 0.03 0.00 81 1012.5
20260510061554 23 186 8.0 14.5 0.00 0.03 0.00 81 1010.2
20260510061341 23 167 9.7 14.5 0.00 0.03 0.00 82 1012.6
20260510061024 23 166 9.7 16.1 0.00 0.03 0.00 82 1010.2
20260510060816 23 178 9.7 14.5 0.00 0.03 0.00 82 1012.6
20260510060508 22 197 8.0 14.5 0.00 0.03 0.00 82 1010.2
20260510060328 23 156 8.0 14.5 0.00 0.03 0.00 82 1012.5
20260510060106 22 176 6.4 14.5 0.00 0.03 0.00 82 1010.2
20260510055844 23 168 6.4 11.3 0.00 0.03 0.00 82 1012.6
20260510055522 23 163 8.0 14.5 0.00 0.03 0.00 82 1010.2
20260510055320 23 172 8.0 14.5 0.00 0.03 0.00 82 1012.6
20260510055017 22 168 9.7 14.5 0.00 0.03 0.00 82 1010.2
20260510054816 23 174 8.0 14.5 0.00 0.03 0.00 82 1012.4
20260510054606 22 166 8.0 14.5 0.00 0.03 0.00 82 1010.1
20260510054331 23 181 8.0 16.1 0.00 0.03 0.00 82 1012.4
20260510054055 22 191 8.0 12.9 0.00 0.03 0.00 82 1010.1
20260510053827 23 169 8.0 14.5 0.00 0.03 0.00 82 1012.5
20260510053548 22 163 6.4 14.5 0.00 0.03 0.00 82 1010.0
20260510053344 23 187 6.4 14.5 0.00 0.03 0.00 82 1012.5
20260510053037 22 174 8.0 14.5 0.00 0.03 0.00 82 1010.2
20260510052819 23 155 9.7 14.5 0.00 0.03 0.00 82 1012.3
20260510052503 22 181 6.4 16.1 0.00 0.03 0.00 81 1010.1
20260510052316 23 181 8.0 16.1 0.00 0.03 0.00 81 1012.4
20260510052056 22 165 9.7 16.1 0.00 0.03 0.00 81 1010.1
20260510051832 23 164 9.7 17.7 0.00 0.03 0.00 81 1012.4
20260510051552 22 168 8.0 14.5 0.00 0.03 0.00 81 1010.1
20260510051327 23 191 9.7 14.5 0.00 0.03 0.00 81 1012.5
20260510051039 22 162 8.0 14.5 0.00 0.03 0.00 81 1010.1
20260510050825 23 183 8.0 16.1 0.00 0.03 0.00 81 1012.5
20260510050532 22 190 9.7 14.5 0.00 0.03 0.00 81 1010.2
20260510050319 23 191 8.0 14.5 0.00 0.03 0.00 80 1012.5
20260510050118 22 177 8.0 11.3 0.00 0.03 0.00 80 1010.1
20260510045833 23 172 9.7 16.1 0.00 0.03 0.03 80 1012.5
20260510045542 22 181 8.0 16.1 0.00 0.03 0.03 80 1010.2
20260510045329 23 151 9.7 16.1 0.00 0.03 0.03 80 1012.6
20260510045030 22 185 8.0 16.1 0.00 0.03 0.03 79 1010.2
20260510044845 23 185 8.0 14.5 0.00 0.03 0.03 79 1012.4
20260510044557 22 165 6.4 14.5 0.00 0.03 0.03 79 1010.1
20260510044320 23 164 8.0 14.5 0.00 0.03 0.03 79 1012.4
20260510044026 22 183 6.4 11.3 0.00 0.03 0.03 79 1010.2
20260510043815 23 176 8.0 12.9 0.00 0.03 0.03 79 1012.4
20260510043510 22 181 4.8 9.7 0.00 0.03 0.03 78 1010.2
20260510043330 23 174 6.4 11.3 0.00 0.03 0.03 78 1012.4
20260510043002 22 174 6.4 11.3 0.00 0.03 0.03 78 1010.2
20260510042846 23 174 4.8 9.7 0.00 0.03 0.03 78 1012.5
20260510042539 22 191 4.8 9.7 0.00 0.03 0.03 77 1010.2
20260510042340 23 174 4.8 9.7 0.00 0.03 0.03 77 1012.3
20260510042102 22 174 4.8 9.7 0.00 0.03 0.03 77 1010.1
20260510041817 23 179 4.8 9.7 0.00 0.03 0.03 77 1012.4
20260510041552 23 182 4.8 9.7 0.00 0.03 0.03 76 1010.2
20260510041331 23 192 6.4 8.0 0.00 0.03 0.03 76 1012.6
20260510041052 23 176 6.4 8.0 0.00 0.03 0.03 76 1010.2
20260510040822 23 195 6.4 8.0 0.00 0.03 0.03 76 1012.5
20260510040523 23 181 3.2 6.4 0.00 0.03 0.03 76 1010.2
20260510040318 23 182 4.8 6.4 0.00 0.03 0.03 76 1012.5
20260510040016 23 181 3.2 6.4 0.00 0.03 0.03 75 1010.2
20260510035834 23 182 4.8 6.4 0.00 0.03 0.03 75 1012.4
20260510035603 23 181 3.2 6.4 0.00 0.03 0.03 75 1010.2
20260510035330 23 182 3.2 8.0 0.00 0.03 0.03 75 1012.4
20260510035053 23 181 3.2 8.0 0.00 0.03 0.03 75 1010.2
20260510034826 23 181 4.8 8.0 0.00 0.03 0.03 75 1012.4
20260510034604 23 181 3.2 8.0 0.00 0.03 0.03 74 1010.1
20260510034322 23 182 3.2 6.4 0.00 0.03 0.03 74 1012.4
20260510034040 23 181 3.2 6.4 0.00 0.03 0.03 74 1010.1
20260510033817 23 182 4.8 6.4 0.00 0.03 0.03 74 1012.4
20260510033538 23 181 3.2 6.4 0.00 0.03 0.03 74 1010.0
20260510033332 23 182 3.2 6.4 0.00 0.03 0.03 74 1012.4
20260510033020 23 181 3.2 6.4 0.00 0.03 0.03 74 1010.1
20260510032848 23 181 3.2 6.4 0.00 0.03 0.03 74 1012.3
20260510032554 23 182 3.2 4.8 0.00 0.03 0.03 74 1010.0
20260510032343 24 182 1.6 4.8 0.00 0.03 0.03 74 1012.4
20260510032026 23 182 0.0 0.0 0.00 0.03 0.03 73 1010.0
20260510031818 24 181 0.0 0.0 0.00 0.03 0.03 73 1012.3
20260510031524 23 182 0.0 0.0 0.00 0.03 0.03 73 1010.1
20260510031315 24 182 0.0 0.0 0.00 0.03 0.03 73 1012.4
20260510031039 24 182 0.0 0.0 0.00 0.03 0.03 73 1010.0
20260510030851 24 182 0.0 0.0 0.00 0.03 0.03 73 1012.2
20260510030502 24 181 0.0 0.0 0.00 0.03 0.03 73 1009.9
20260510030324 24 181 0.0 0.0 0.00 0.03 0.03 73 1012.1
20260510030106 24 152 0.0 0.0 0.00 0.03 0.03 73 1009.8
20260510025839 25 152 0.0 0.0 0.00 0.03 0.03 73 1012.0
20260510025528 24 158 0.0 0.0 0.00 0.03 0.03 72 1009.7
20260510025314 25 138 0.0 0.0 0.00 0.03 0.03 72 1011.8
20260510025020 24 138 0.0 0.0 0.00 0.03 0.03 72 1009.6
20260510024831 25 138 0.0 0.0 0.00 0.03 0.03 72 1011.8
20260510024509 25 164 0.0 0.0 0.00 0.03 0.03 72 1009.6
20260510024328 25 164 0.0 0.0 0.00 0.03 0.03 71 1011.9
20260510024006 25 164 0.0 0.0 0.00 0.03 0.03 71 1009.5
20260510023845 25 157 0.0 0.0 0.00 0.03 0.03 71 1011.8
20260510023540 25 177 0.0 0.0 0.00 0.03 0.03 71 1009.5
20260510023317 25 177 0.0 0.0 0.00 0.03 0.03 70 1011.7
20260510023002 25 177 0.0 0.0 0.00 0.03 0.03 70 1009.3
20260510022833 25 177 0.0 0.0 0.00 0.03 0.03 69 1011.5
20260510022603 25 177 0.0 0.0 0.00 0.03 0.03 68 1009.1
20260510022323 26 177 0.0 0.0 0.00 0.03 0.03 68 1011.4
20260510022028 25 173 0.0 0.0 0.00 0.03 0.03 67 1009.0
20260510021819 26 188 0.0 0.0 0.00 0.03 0.03 66 1011.4
20260510021529 26 162 0.0 0.0 0.00 0.03 0.03 65 1009.1
20260510021316 26 154 0.0 0.0 0.00 0.03 0.03 65 1011.3
20260510021018 26 139 0.0 0.0 0.00 0.03 0.03 65 1009.1
20260510020832 26 140 0.0 0.0 0.00 0.03 0.03 65 1011.2
20260510020502 26 139 0.0 0.0 0.00 0.03 0.03 64 1008.8
20260510020329 26 140 0.0 0.0 0.00 0.03 0.03 64 1011.0
20260510020054 26 139 0.0 0.0 0.00 0.03 0.03 64 1008.7
20260510015824 27 140 0.0 0.0 0.00 0.03 0.03 64 1011.0
20260510015543 26 139 0.0 0.0 0.00 0.03 0.03 64 1008.6
20260510015321 27 141 0.0 0.0 0.00 0.03 0.03 63 1010.9
20260510015033 26 147 0.0 0.0 0.00 0.03 0.03 62 1008.7
20260510014815 27 193 0.0 0.0 0.00 0.03 0.03 62 1010.9
20260510014518 27 193 0.0 0.0 0.00 0.03 0.03 61 1008.6
20260510014353 27 193 0.0 0.0 0.00 0.03 0.03 60 1010.8
20260510014050 27 193 0.0 0.0 0.00 0.03 0.03 59 1008.5
20260510013826 27 193 0.0 0.0 0.00 0.03 0.03 58 1010.7
20260510013540 27 193 0.0 0.0 0.00 0.03 0.03 57 1008.6
20260510013322 27 193 0.0 0.0 0.00 0.03 0.03 57 1010.7
20260510013035 27 193 0.0 0.0 0.00 0.03 0.03 56 1008.4
20260510012817 28 193 0.0 0.0 0.00 0.03 0.03 56 1010.6
20260510012526 28 193 0.0 0.0 0.00 0.03 0.03 55 1008.2
20260510012333 28 193 0.0 0.0 0.00 0.03 0.03 54 1010.4
20260510012010 28 193 0.0 0.0 0.00 0.03 0.03 54 1008.1
20260510011827 28 193 0.0 0.0 0.00 0.03 0.03 54 1010.3
20260510011504 28 193 0.0 0.0 0.00 0.03 0.03 53 1008.1
20260510011322 28 193 0.0 0.0 0.00 0.03 0.03 53 1010.3
20260510011058 28 193 0.0 0.0 0.00 0.03 0.03 53 1008.1
20260510010839 29 193 0.0 0.0 0.00 0.03 0.03 53 1010.3
20260510010528 29 194 0.0 0.0 0.00 0.03 0.03 52 1008.1
20260510010333 29 193 0.0 0.0 0.00 0.03 0.03 52 1010.3
20260510010010 29 193 0.0 0.0 0.00 0.03 0.03 52 1008.1
20260510005829 30 193 0.0 0.0 0.00 0.03 0.03 52 1010.3
20260510005545 29 193 0.0 0.0 0.00 0.03 0.03 52 1008.1
20260510005324 30 193 0.0 0.0 0.00 0.03 0.03 52 1010.3
20260510005036 30 193 0.0 0.0 0.00 0.03 0.03 52 1008.1
20260510004840 30 193 0.0 0.0 0.00 0.03 0.03 52 1010.2
20260510004602 30 193 0.0 0.0 0.00 0.03 0.03 51 1008.1
20260510004316 30 193 0.0 0.0 0.00 0.03 0.03 51 1010.2
20260510004054 30 193 0.0 0.0 0.00 0.03 0.03 51 1008.0
20260510003832 30 193 0.0 0.0 0.00 0.03 0.03 51 1010.3
20260510003516 30 193 0.0 0.0 0.00 0.03 0.03 50 1008.0
20260510003328 30 193 0.0 0.0 0.00 0.03 0.03 50 1010.3
20260510003010 30 194 0.0 0.0 0.00 0.03 0.03 50 1008.1
20260510002825 30 193 0.0 0.0 0.00 0.03 0.03 50 1010.2
20260510002541 30 193 0.0 0.0 0.00 0.03 0.03 49 1008.0
20260510002342 30 193 0.0 0.0 0.00 0.03 0.03 49 1010.3
20260510002016 30 193 0.0 0.0 0.00 0.03 0.03 48 1008.0
20260510001818 30 194 0.0 0.0 0.00 0.03 0.03 47 1010.2
20260510001602 30 193 0.0 0.0 0.00 0.03 0.03 48 1008.0
20260510001329 30 194 0.0 0.0 0.00 0.03 0.03 47 1010.2
20260510001058 30 193 0.0 0.0 0.00 0.03 0.03 46 1007.9
20260510000826 30 193 0.0 0.0 0.00 0.03 0.03 48 1010.2
20260510000554 30 193 0.0 0.0 0.00 0.03 0.03 47 1008.0
20260510000344 30 193 0.0 0.0 0.00 0.03 0.03 47 1010.2
20260510000022 30 182 0.0 0.0 0.00 0.03 0.03 47 1008.0
20260509235818 30 170 0.0 0.0 0.00 0.03 0.03 47 1010.1
20260509235544 30 221 0.0 0.0 0.00 0.03 0.03 50 1007.8
20260509235400 31 221 0.0 0.0 0.00 0.03 0.03 48 1010.1
20260509235014 30 220 0.0 0.0 0.00 0.03 0.03 48 1007.9
20260509234829 31 220 0.0 0.0 0.00 0.03 0.03 47 1010.1
20260509234602 30 216 0.0 0.0 0.00 0.03 0.03 48 1007.9
20260509234328 31 218 0.0 0.0 0.00 0.03 0.03 48 1010.1
20260509234052 30 204 0.0 0.0 0.00 0.03 0.03 49 1007.9
20260509233825 31 224 0.0 0.0 0.00 0.03 0.03 48 1010.1
20260509233544 30 185 0.0 0.0 0.00 0.03 0.03 47 1007.9
20260509233320 31 175 0.0 0.0 0.00 0.03 0.03 47 1010.1
20260509233036 30 164 0.0 0.0 0.00 0.03 0.03 47 1007.9
20260509232816 31 171 0.0 0.0 0.00 0.03 0.03 48 1010.1
20260509232532 30 233 0.0 0.0 0.00 0.03 0.03 48 1008.0
20260509232332 31 172 0.0 0.0 0.00 0.03 0.03 48 1010.1
20260509232016 30 211 0.0 0.0 0.00 0.03 0.03 49 1007.9
20260509231828 31 190 0.0 0.0 0.00 0.03 0.03 49 1010.0
20260509231507 30 179 0.0 0.0 0.00 0.03 0.03 49 1007.9
20260509231324 31 189 0.0 0.0 0.00 0.03 0.03 49 1010.1
20260509231101 30 189 0.0 0.0 0.00 0.03 0.03 48 1007.9
20260509230822 31 214 0.0 0.0 0.00 0.03 0.03 47 1010.1
20260509230553 31 170 0.0 0.0 0.00 0.03 0.03 47 1007.9
20260509230320 31 190 0.0 0.0 0.00 0.03 0.03 48 1010.1
20260509230052 31 190 0.0 0.0 0.00 0.03 0.03 48 1007.9
20260509225853 31 236 0.0 3.2 0.00 0.03 0.03 47 1010.0
20260509225516 31 235 0.0 3.2 0.00 0.03 0.03 47 1007.9
20260509225330 31 237 0.0 3.2 0.00 0.03 0.03 47 1010.1
20260509225009 31 158 0.0 3.2 0.00 0.03 0.03 48 1007.9
20260509224825 31 158 0.0 8.0 0.00 0.03 0.03 48 1010.1
20260509224501 31 158 1.6 9.7 0.00 0.03 0.03 48 1007.9
20260509224322 31 158 1.6 9.7 0.00 0.03 0.03 47 1010.0
20260509224051 31 158 6.4 9.7 0.00 0.03 0.03 46 1007.9
20260509223814 31 206 4.8 9.7 0.00 0.03 0.03 47 1010.1
20260509223546 31 207 4.8 9.7 0.00 0.03 0.03 47 1007.9
20260509223352 31 198 1.6 4.8 0.00 0.03 0.03 48 1010.1
20260509223014 31 249 0.0 4.8 0.00 0.03 0.03 48 1007.9
20260509222827 31 249 0.0 4.8 0.00 0.03 0.03 47 1010.0
20260509222507 31 249 0.0 8.0 0.00 0.03 0.03 48 1007.9
20260509222324 31 282 1.6 9.7 0.00 0.03 0.03 48 1010.0
20260509222002 31 283 3.2 9.7 0.00 0.03 0.03 48 1008.0
20260509221841 31 287 4.8 9.7 0.00 0.03 0.03 48 1010.0
20260509221533 31 231 4.8 9.7 0.00 0.03 0.03 48 1007.9
20260509221316 31 240 3.2 11.3 0.00 0.03 0.03 49 1010.1
20260509221058 31 230 4.8 19.3 0.00 0.03 0.03 50 1008.0
20260509220831 31 220 4.8 19.3 0.00 0.03 0.03 50 1010.1
20260509220549 31 254 6.4 19.3 0.00 0.03 0.03 49 1008.0
20260509220325 31 247 6.4 22.5 0.00 0.03 0.03 48 1010.0
20260509220045 31 66 3.2 6.4 0.00 0.03 0.03 47 1008.0
20260509215838 31 233 1.6 9.7 0.00 0.03 0.03 48 1010.1
20260509215518 31 181 1.6 9.7 0.00 0.03 0.03 47 1008.0
20260509215332 31 181 4.8 9.7 0.00 0.03 0.03 47 1010.1
20260509215100 31 218 6.4 9.7 0.00 0.03 0.03 47 1008.0
20260509214828 31 194 3.2 11.3 0.00 0.03 0.03 48 1010.2
20260509214600 31 271 3.2 11.3 0.00 0.03 0.03 48 1008.1
20260509214324 31 238 4.8 11.3 0.00 0.03 0.03 48 1010.3
20260509214043 31 220 4.8 11.3 0.00 0.03 0.03 49 1008.1
20260509213820 31 199 4.8 11.3 0.00 0.03 0.03 49 1010.2
20260509213533 31 231 1.6 6.4 0.00 0.03 0.03 47 1008.1
20260509213336 31 231 0.0 6.4 0.00 0.03 0.03 48 1010.3
20260509213100 31 231 3.2 6.4 0.00 0.03 0.03 49 1008.2
20260509212830 31 162 1.6 9.7 0.00 0.03 0.03 49 1010.3
20260509212531 30 248 0.0 9.7 0.00 0.03 0.03 49 1008.3
20260509212325 31 249 0.0 9.7 0.00 0.03 0.03 48 1010.4
20260509212028 30 181 6.4 9.7 0.00 0.03 0.03 48 1008.3
20260509211823 31 160 3.2 9.7 0.00 0.03 0.03 48 1010.4
20260509211507 30 208 6.4 9.7 0.00 0.03 0.03 49 1008.4
20260509211318 31 198 6.4 9.7 0.00 0.03 0.03 49 1010.5
20260509211100 30 216 4.8 11.3 0.00 0.03 0.03 50 1008.4
20260509210854 31 271 3.2 11.3 0.00 0.03 0.03 51 1010.5
20260509210534 30 251 3.2 14.5 0.00 0.03 0.03 50 1008.5
20260509210329 30 250 4.8 14.5 0.00 0.03 0.03 50 1010.5
20260509210026 30 193 9.7 14.5 0.00 0.03 0.03 49 1008.5
20260509205824 30 183 4.8 12.9 0.00 0.03 0.03 50 1010.7
20260509205509 30 230 4.8 16.1 0.00 0.03 0.03 49 1008.6
20260509205322 30 282 8.0 16.1 0.00 0.03 0.03 50 1010.7
20260509205002 30 261 6.4 16.1 0.00 0.03 0.03 52 1008.8
20260509204818 30 268 8.0 14.5 0.00 0.03 0.03 51 1010.9
20260509204600 30 291 6.4 12.9 0.00 0.03 0.03 52 1008.8
20260509204333 30 295 4.8 12.9 0.00 0.03 0.03 52 1010.9
20260509204049 30 266 4.8 12.9 0.00 0.03 0.03 51 1009.0
20260509203829 30 327 3.2 12.9 0.00 0.03 0.03 52 1011.1
20260509203541 30 233 4.8 16.1 0.00 0.03 0.03 50 1009.1
20260509203325 30 253 4.8 16.1 0.00 0.03 0.03 53 1011.1
20260509203038 30 243 6.4 16.1 0.00 0.03 0.03 54 1009.0
20260509202821 30 265 6.4 16.1 0.00 0.03 0.03 54 1011.1
20260509202525 30 235 8.0 12.9 0.00 0.03 0.03 56 1009.1
20260509202317 30 248 6.4 12.9 0.00 0.03 0.03 57 1011.1
20260509202011 30 268 4.8 11.3 0.00 0.03 0.03 58 1009.1
20260509201854 30 310 4.8 9.7 0.00 0.03 0.03 58 1011.1
20260509201546 30 238 1.6 11.3 0.00 0.03 0.03 56 1009.0
20260509201329 30 136 6.4 11.3 0.00 0.03 0.03 56 1011.1
20260509201037 30 152 3.2 11.3 0.00 0.03 0.03 56 1009.2
20260509200826 30 246 4.8 16.1 0.00 0.03 0.03 56 1011.2
20260509200529 30 236 1.6 16.1 0.00 0.03 0.03 55 1009.3
20260509200321 30 218 8.0 16.1 0.00 0.03 0.03 55 1011.3
20260509200028 30 260 8.0 14.5 0.00 0.03 0.03 58 1009.3
20260509195817 30 220 6.4 14.5 0.00 0.03 0.03 58 1011.3
20260509195506 30 266 4.8 14.5 0.00 0.03 0.03 57 1009.3
20260509195332 30 306 6.4 14.5 0.00 0.03 0.03 57 1011.4
20260509195059 30 257 4.8 12.9 0.00 0.03 0.03 57 1009.5
20260509194828 30 263 4.8 11.3 0.00 0.03 0.03 58 1011.4
20260509194553 29 177 0.0 1.6 0.00 0.03 0.03 59 1009.5
20260509194324 29 177 0.0 0.0 0.00 0.03 0.03 58 1011.5
20260509194041 28 177 0.0 0.0 0.00 0.03 0.03 59 1009.6
20260509193821 29 177 0.0 0.0 0.00 0.03 0.03 60 1011.7
20260509193537 28 177 0.0 0.0 0.00 0.03 0.03 58 1009.7
20260509193317 29 191 0.0 0.0 0.00 0.03 0.03 59 1011.7
20260509193033 29 222 0.0 0.0 0.00 0.03 0.03 60 1009.8
20260509192814 29 211 0.0 0.0 0.00 0.03 0.03 59 1011.8
20260509192511 29 228 0.0 0.0 0.00 0.03 0.03 61 1009.9
20260509192330 29 222 0.0 0.0 0.00 0.03 0.03 61 1011.8